Location: Unspecified
(0.0000°N, 0.0000°E)
Time: 16:34:00
(UTC+02:00)

NOAA 12 - Visible Passes

Search period start: 25 April 2018 00:00
Search period end: 05 May 2018 00:00
Orbit: 795 x 816 km, 98.5° (Epoch: 24 April)

Date Brightness Start Highest point End Pass type
(mag) Time Alt. Az. Time Alt. Az. Time Alt. Az.
25 Apr 4.1 20:37:15 10° SSE 20:42:31 65° ENE 20:47:42 10° N visible
26 Apr 6.8 21:53:58 10° SW 21:57:04 16° WSW 22:00:09 10° WNW visible
27 Apr 5.8 21:27:31 10° SSW 21:32:09 31° WSW 21:36:45 10° NW visible
28 Apr 4.5 21:02:00 10° S 21:07:14 63° WSW 21:12:24 10° NNW visible
29 Apr 4.1 20:37:03 10° SSE 20:42:17 65° ENE 20:47:28 10° N visible
30 Apr 6.8 21:53:46 10° SW 21:56:51 16° WSW 21:59:55 10° WNW visible
01 May 5.8 21:27:19 10° SSW 21:31:56 31° WSW 21:36:31 10° NW visible
02 May 4.5 21:01:47 10° S 21:07:00 63° WSW 21:12:10 10° NNW visible
03 May 4.1 20:36:50 10° SSE 20:42:03 65° ENE 20:47:14 10° N visible
04 May 6.8 21:53:33 10° SW 21:56:37 16° WSW 21:59:41 10° WNW visible
